Binghamton, NY

11:16 PM EST on November 19, 2019 (GMT -0500)
Binghamton Regional-Link

Weather History for KBGM - September, 2019

Change the Weather History Date:

Monday, September 2, 2019

  Actual Average Record
Temperature  
Mean Temperature 65 °F 64 °F  
Max Temperature 73 °F 73 °F 96 °F (1953)
Min Temperature 57 °F 55 °F 39 °F (2001)
Degree Days  
Heating Degree Days 0 3  
Month to date heating degree days 5 6  
Since 1 July heating degree days 42 69  
Cooling Degree Days 0 2  
Month to date cooling degree days 0 4  
Year to date cooling degree days 362 352  
Growing Degree Days 16 (Base 50)    
Moisture  
Dew Point 60 °F    
Average Humidity 87    
Maximum Humidity 100    
Minimum Humidity 73    
Precipitation  
Precipitation 1.28 in 0.12 in 1.65 in (1979)
Month to date precipitation 1.28 0.23  
Year to date precipitation 30.07 26.44  
Snow  
Snow 0.00 in 0.00 in 0.00 in (2002)
Month to date snowfall 0.0 0.0  
Since 1 July snowfall 0.0 0.0  
Since 1 September snowfall 0.0 0.0  
Snow Depth 0.00 in    
Sea Level Pressure  
Sea Level Pressure 30.04 in    
Wind  
Wind Speed 7 mph (SW)    
Max Wind Speed 16 mph    
Max Gust Speed 22 mph    
Visibility 7 miles    
Events Fog , Rain    
T = Trace of Precipitation, MM = Missing Value Source: NWS Daily Summary

Daily Weather History Graph

Daily Weather History Graph

Search for Another Location

Airport or City:

Astronomy

Sep. 02, 2019 Rise Set
Actual Time 6:30 AM EDT 7:36 PM EDT
Civil Twilight 6:01 AM EDT 8:05 PM EDT
Nautical Twilight 5:26 AM EDT 8:39 PM EDT
Astronomical Twilight 4:50 AM EDT 9:15 PM EDT
Moon 10:13 AM EDT (9/2) 9:52 PM EDT (9/2)
Length of Visible Light 14h 03m
Length of Day
13h 06m
Waxing Crescent, 15% of the Moon is Illuminated
Sep 2
Waxing Crescent
Sep 5
First Quarter
Sep 14
Full
Sep 21
Last Quarter
Sep 28
New

Hourly Weather History & Observations

Time (EDT) Temp. Dew Point Humidity Pressure Visibility Wind Dir Wind Speed Gust Speed Precip Events Conditions
12:53 AM 63.0 °F 57.9 °F 84% 30.14 in 10.0 mi South 9.2 mph - N/A   Mostly Cloudy
1:53 AM 62.1 °F 57.9 °F 86% 30.13 in 10.0 mi South 8.1 mph - 0.00 in Rain Light Rain
2:04 AM 62.1 °F 57.9 °F 86% 30.14 in 5.0 mi South 8.1 mph - 0.02 in Rain Rain
2:13 AM 62.1 °F 57.9 °F 86% 30.13 in 10.0 mi South 6.9 mph - 0.02 in Rain Light Rain
2:53 AM 61.0 °F 57.9 °F 90% 30.10 in 10.0 mi South 6.9 mph - 0.03 in   Overcast
3:38 AM 61.0 °F 57.9 °F 90% 30.10 in 10.0 mi South 8.1 mph - N/A   Mostly Cloudy
3:53 AM 62.1 °F 57.9 °F 86% 30.08 in 10.0 mi South 8.1 mph - N/A   Overcast
4:32 AM 62.1 °F 59.0 °F 90% 30.09 in 9.0 mi South 8.1 mph - 0.00 in Rain Light Rain
4:53 AM 62.1 °F 59.0 °F 90% 30.07 in 8.0 mi SW 8.1 mph - 0.01 in Rain Light Rain
5:18 AM 60.1 °F 60.1 °F 100% 30.09 in 3.0 mi WNW 3.5 mph - 0.06 in Rain Light Rain
5:33 AM 60.1 °F 60.1 °F 100% 30.08 in 2.5 mi SW 4.6 mph - 0.10 in Rain Rain
5:41 AM 61.0 °F 60.1 °F 97% 30.08 in 1.2 mi SSW 4.6 mph - 0.17 in Rain Heavy Rain
5:53 AM 61.0 °F 60.1 °F 97% 30.06 in 1.0 mi South 9.2 mph - 0.51 in Rain Heavy Rain
5:59 AM 61.0 °F 60.1 °F 97% 30.07 in 2.0 mi South 9.2 mph - 0.04 in Rain Rain
6:20 AM 61.0 °F 60.1 °F 97% 30.07 in 2.0 mi South 4.6 mph - 0.10 in Rain Rain
6:31 AM 61.0 °F 60.1 °F 97% 30.07 in 2.0 mi SSE 9.2 mph - 0.13 in Rain Rain
6:47 AM 60.8 °F 60.8 °F 100% 30.05 in 1.8 mi SSE 10.4 mph - 0.17 in Rain Light Rain
6:53 AM 60.1 °F 60.1 °F 100% 30.03 in 0.5 mi SSE 9.2 mph - 0.18 in Fog , Rain Light Rain
7:06 AM 61.0 °F 60.1 °F 97% 30.04 in 0.5 mi SSE 8.1 mph - 0.01 in Rain Light Rain
7:25 AM 61.0 °F 60.1 °F 97% 30.04 in 0.5 mi SE 4.6 mph - 0.27 in Fog , Rain Heavy Rain
7:50 AM 60.8 °F 60.8 °F 100% 30.04 in 0.2 mi Calm Calm - 0.52 in Fog , Rain Light Rain
7:53 AM 61.0 °F 61.0 °F 100% 30.02 in 0.5 mi Calm Calm - 0.52 in Fog , Rain Light Rain
8:17 AM 62.1 °F 61.0 °F 96% 30.04 in 0.8 mi SSW 5.8 mph - 0.00 in   Overcast
8:32 AM 63.0 °F 61.0 °F 93% 30.04 in 10.0 mi SW 9.2 mph - 0.00 in   Overcast
8:53 AM 64.0 °F 62.1 °F 93% 30.02 in 10.0 mi WSW 10.4 mph - 0.00 in   Mostly Cloudy
9:53 AM 64.9 °F 63.0 °F 93% 30.02 in 10.0 mi WSW 9.2 mph - N/A   Overcast
10:00 AM 64.9 °F 63.0 °F 93% 30.03 in 10.0 mi SW 9.2 mph - N/A   Overcast
10:08 AM 64.9 °F 63.0 °F 93% 30.03 in 10.0 mi WSW 6.9 mph - N/A   Overcast
10:39 AM 64.9 °F 62.1 °F 90% 30.03 in 10.0 mi West 9.2 mph - N/A   Overcast
10:53 AM 66.9 °F 63.0 °F 87% 30.01 in 10.0 mi WSW 11.5 mph 18.4 mph N/A   Overcast
11:53 AM 68.0 °F 63.0 °F 84% 30.01 in 10.0 mi WSW 10.4 mph - N/A   Overcast
12:53 PM 68.0 °F 62.1 °F 81% 30.00 in 10.0 mi WSW 9.2 mph - N/A   Overcast
1:51 PM 69.8 °F 62.6 °F 78% 30.01 in 10.0 mi SW 10.4 mph - N/A   Mostly Cloudy
1:53 PM 70.0 °F 63.0 °F 78% 29.99 in 10.0 mi SW 8.1 mph - N/A   Mostly Cloudy
2:05 PM 69.1 °F 63.0 °F 81% 30.00 in 10.0 mi SSW 9.2 mph - N/A   Mostly Cloudy
2:14 PM 70.0 °F 64.0 °F 81% 30.00 in 10.0 mi Variable 6.9 mph - N/A   Mostly Cloudy
2:53 PM 72.0 °F 62.1 °F 71% 29.97 in 10.0 mi Variable 5.8 mph 18.4 mph N/A   Overcast
3:27 PM 66.9 °F 64.0 °F 90% 29.99 in 3.0 mi NNW 9.2 mph - 0.02 in Rain Heavy Rain
3:53 PM 66.0 °F 63.0 °F 90% 29.98 in 10.0 mi NW 8.1 mph - 0.03 in   Scattered Clouds
4:36 PM 68.0 °F 64.0 °F 87% 30.00 in 10.0 mi WNW 8.1 mph - N/A   Mostly Cloudy
4:53 PM 68.0 °F 64.0 °F 87% 29.99 in 10.0 mi West 9.2 mph - 0.00 in Rain Light Rain
5:00 PM 68.0 °F 64.0 °F 87% 30.00 in 10.0 mi West 9.2 mph - 0.00 in   Mostly Cloudy
5:43 PM 68.0 °F 63.0 °F 84% 30.01 in 10.0 mi NNW 10.4 mph - 0.00 in   Mostly Cloudy
5:53 PM 68.0 °F 62.1 °F 81% 29.99 in 10.0 mi NNW 10.4 mph - 0.00 in   Scattered Clouds
6:32 PM 66.0 °F 57.9 °F 75% 30.02 in 10.0 mi NNW 11.5 mph - N/A   Mostly Cloudy
6:53 PM 64.9 °F 57.9 °F 78% 30.01 in 10.0 mi NNW 11.5 mph - N/A   Overcast
7:53 PM 63.0 °F 57.0 °F 81% 30.02 in 10.0 mi North 6.9 mph - N/A   Scattered Clouds
8:53 PM 61.0 °F 57.0 °F 87% 30.03 in 10.0 mi Calm Calm - N/A   Clear
9:53 PM 60.1 °F 57.0 °F 90% 30.05 in 10.0 mi NW 3.5 mph - N/A   Clear
10:53 PM 60.1 °F 57.0 °F 90% 30.06 in 10.0 mi Calm Calm - N/A   Clear
11:53 PM 60.1 °F 57.0 °F 90% 30.06 in 10.0 mi NW 4.6 mph - N/A   Clear